www.pogodaiklimat.ru

Погода и климат >> Архив погоды >> Россия >> Чукотка >> Уэлен


ПОГОДА в Уэлене

АРХИВ ПОГОДЫ в Уэлене

Время (UTC), дата Ветер
(напр.,м/с)
 
Видим.   Явления Облачность Т
(С)
Тd
(С)
f
(%)
Тe
(С)
Тes
(С)
Комфортность P
(гПа)
Po
(гПа)
Тmin
(С)
Tmax
(С)
R
(мм)
R24
(мм)
S
(см)
21 10.10 ЮЗ 4
{7}
50 км 9/9 600 м
[Sc]
+3.0 +0.1 81 -2 -2 1007.9 1007.0
00 11.10 З 4
{8}
50 км 9/8 600 м
[Sc Ci fib]
+4.2 +1.4 82 -0 0 1010.8 1009.9
03 11.10 З 5
{10}
50 км 8/6 600 м
[Sc Ci fib]
+4.0 +1.4 83 -1 -1 1013.3 1012.4
06 11.10 Ю 4
{8}
50 км 9/9 600 м
[Sc]
+2.4 -0.3 82 -2 -2 1015.7 1014.8 +4.4
09 11.10 ЮЗ 1
{7}
50 км 9/9 600 м
[Sc]
+1.8 -1.0 82 0 0 1017.7 1016.8
12 11.10 штиль 0
{4}
50 км 9/9 600 м
[Sc]
+1.0 -0.7 88 -0 -0 1018.5 1017.6
15 11.10 СВ 2
{4}
50 км 10/10 600 м
[Sc]
+2.2 -0.6 82 -1 -1 1018.3 1017.4
18 11.10 СВ 4
{5}
19 км слабый ливневой дождь 9/9 300 м
[Cb cap]
+2.1 +0.2 87 -3 -3 1017.9 1017.0 +0.9 0.0
21 11.10 В 7
{9}
20 км в посл. час ливневой дождь 9/9 300 м
[St]
+3.0 -0.2 79 -3 -3 1016.6 1015.7
00 12.10 В 7-10
{13}
20 км {ливн. осадки} 10/5 600 м
[Sc Ac lent Cs]
+3.4 -0.7 74 -2 -2 1013.4 1012.5
03 12.10 В 14-17
{19}
13 км слабый ливневой дождь 10/8 300 м
[Cb cap As op]
+3.2 +1.4 88 -5 -5 1007.6 1006.7
06 12.10 В 12-15
{19}
16 км слабый ливневой дождь 10/6 300 м
[Cb cap As op]
+4.2 +2.5 89 -3 -3 1004.4 1003.5 +4.2 1
09 12.10 В 11-13
{19}
3900 м дождь {ливн. осадки} 10/10 300 м
[Frnb Ns]
+4.8 +3.8 93 -2 -2 998.5 997.6
12 12.10 В 11-13
{18}
3800 м дождь {ливн. осадки} 10/10 300 м
[Frnb Ns]
+5.5 +4.6 94 -1 -1 992.9 992.0
15 12.10 ЮВ 10-13
{21}
9000 м слабый дождь 10/10 300 м
[Frnb Ns]
+7.2 +5.1 86 +2 +2 989.4 988.5
18 12.10 Ю 12-14
{19}
17 км в посл. час дождь 9/9 300 м
[St]
+7.0 +5.0 87 +1 +1 987.8 986.9 +4.0 5.2
21 12.10 Ю 10-12
{16}
20 км {ливн. осадки} 9/9 300 м
[St]
+4.1 +2.6 90 -3 -3 989.6 988.7
00 13.10 ЮВ 8-10
{14}
19 км {ливн. осадки} 9/9 300 м
[Cu Sc]
+6.0 +2.3 77 +1 +1 989.4 988.5
03 13.10 ЮВ 12-14
{18}
18 км 9/9 300 м
[Cu Sc]
+6.4 +3.6 82 0 0 987.7 986.8
06 13.10 Ю 12-15
{18}
18 км слабый ливневой дождь 10/10 300 м
[Cb cap]
+5.8 +3.2 83 -1 -1 987.5 986.6 +7.1 1
09 13.10 Ю 13-16
{18}
16 км {ливн. осадки} 10/10 300 м
[Cu Sc]
+6.0 +2.6 79 -1 -1 987.2 986.3
12 13.10 Ю 13-16
{19}
14 км слабый ливневой дождь 10/10 300 м
[Cb cap]
+5.8 +3.2 83 -1 -1 987.0 986.1
15 13.10 Ю 13-17
{19}
14 км слабый ливневой дождь 9/9 300 м
[Cb cap]
+5.8 +4.2 89 -1 -1 986.7 985.8
18 13.10 Ю 17-20
{20}
16 км {ливн. осадки} 10/10 300 м
[Cu Sc]
+5.6 +2.9 83 -2 -2 987.7 986.8 +4.7 4
21 13.10 Ю 14-16
{24}
17 км 9/9 300 м
[Cu Sc]
+5.0 +2.3 83 -2 -2 991.4 990.5
00 14.10 Ю 13-16
{20}
20 км {ливн. осадки} 9/9 300 м
[Cu Sc]
+4.6 +1.3 79 -3 -3 993.6 992.7
03 14.10 Ю 14-16
{19}
20 км в посл. час ливневой дождь 8/8 300 м
[Cu Sc]
+3.8 +0.9 81 -4 -4 995.7 994.8
06 14.10 Ю 11-14
{19}
35 км {ливн. осадки} 4/3 600 м
[Sc Ci fib]
+3.8 +0.9 81 -3 -3 998.0 997.1 +5.6 0.0
09 14.10 Ю 7
{16}
40 км 4/3 600 м
[Sc Ci fib]
+3.8 +0.9 81 -2 -2 1000.2 999.3
12 14.10 Ю 5
{11}
50 км 10/1 600 м
[Sc Ci fib]
+3.7 +1.1 83 -1 -1 1001.3 1000.4
15 14.10 ЮВ 3
{9}
50 км 3/1 600 м
[Sc Ci fib]
+3.7 +0.5 80 0 0 1001.8 1000.9
18 14.10 ЮВ 2
{7}
20 км 10/3 600 м
[Cu Sc Ci fib]
+3.0 +0.1 81 0 0 1002.3 1001.4 +2.5
21 14.10 штиль 0
{3}
20 км 6/5 600 м
[Sc Ci fib]
+3.8 -0.2 75 +3 +3 1002.7 1001.8
00 15.10 штиль 0
{2}
20 км 8/5 600 м
[Cu Sc Ci fib]
+5.0 +1.7 79 +4 +5 1002.7 1001.8
03 15.10 штиль 0
{5}
20 км 4/3 600 м
[Sc Ci fib]
+4.8 +1.5 79 +4 +4 1002.1 1001.2
06 15.10 штиль 0
{3}
30 км 9/9 600 м
[Sc]
+3.0 +0.3 82 +2 +2 1001.9 1001.0 +5.4
09 15.10 штиль 0
{3}
30 км 6/4 600 м
[Sc Ci fib]
+2.8 +0.7 86 +2 +2 1001.7 1000.8
12 15.10 В 2
{4}
40 км 6/3 600 м
[Sc Ci fib]
+2.8 -0.5 79 -0 -0 1001.5 1000.6
15 15.10 штиль 0
{6}
30 км 9/9 300 м
[St]
+2.6 +1.3 91 +1 +1 1001.0 1000.1
18 15.10 штиль 0
{6}
50 км {ливн. осадки} 10/8 600 м
[Cu Sc Ci fib]
+3.2 +0.8 84 +2 +2 1001.0 1000.1 +2.3 1
21 15.10 В 5
{6}
20 км 10/9 300 м
[Cu Sc Ci fib]
+3.1 +1.8 91 -2 -2 1001.5 1000.6
00 16.10 В 5
{7}
20 км {ливн. осадки} 9/8 600 м
[Cu Sc Ci fib]
+2.8 +1.5 91 -3 -3 1001.7 1000.8
03 16.10 В 4
{6}
20 км {ливн. осадки} 9/6 600 м
[Cu Sc Ci fib]
+2.9 +1.1 88 -2 -2 1001.8 1000.9
06 16.10 СВ 5
{6}
22 км {ливн. осадки} 9/9 600 м
[Sc]
+3.3 +0.1 80 -2 -2 1002.2 1001.3 +3.3 0.4
09 16.10 С 5
{7}
21 км 9/9 600 м
[Sc]
+2.5 +0.9 89 -3 -3 1003.0 1002.1
12 16.10 СВ 5
{6}
23 км 9/9 600 м
[Sc]
+2.8 +0.7 86 -3 -3 1003.5 1002.6
15 16.10 СВ 8
{9}
22 км 10/8 600 м
[Sc Ci fib]
+2.8 +1.0 88 -4 -4 1003.7 1002.8
18 16.10 СВ 10-11
{12}
20 км {ливн. осадки} 8/6 300 м
[St Ci fib]
+2.1 -0.4 84 -5 -5 1004.2 1003.3 +1.9 0.1
21 16.10 С 8-10
{12}
50 км 9/9 600 м
[Sc]
+1.6 -3.2 70 -5 -5 1005.1 1004.2
00 17.10 С 8
{10}
50 км 9/9 600 м
[Sc]
+1.4 -3.4 70 -5 -5 1005.3 1004.4
03 17.10 С 7
{11}
50 км 10/10 600 м
[Sc]
+1.0 -3.2 74 -6 -6 1004.5 1003.6
06 17.10 С 6
{11}
50 км 10/10 600 м
[Sc]
+0.8 -4.2 69 -5 -5 1004.4 1003.5 +2.2
09 17.10 С 6
{11}
50 км 10/10 600 м
[Sc]
+1.2 -2.6 76 -5 -5 1004.2 1003.3
12 17.10 СВ 7
{11}
50 км 8/6 600 м
[Sc Ci fib]
+1.8 -3.6 67 -4 -4 1003.7 1002.8
15 17.10 С 7
{11}
24 км {ливн. осадки} 10/10 300 м
[Cu Sc]
+1.4 -3.4 70 -5 -5 1003.5 1002.6

 

Местоположение метеостанции Уэлен (Чукотка, Россия): широта 66.16 долгота -169.00 высота над уровнем моря 7 м.

В архиве по умолчанию представлена погода в Уэлене за последнюю неделю. Архивные данные за месяц целиком и за предыдущие месяцы, начиная с января 2011 года, Вы можете получить, выбрав интересующий диапазон дат из раскрывающегося списка и нажав кнопку "Ввод!".

Внимание! Время в таблицах - всемирное. Для получения местного времени необходимо прибавить поправку, которая в Уэлене равна 12 ч.

Смотрите также архив погоды в соседних городах и на ближайших метеорологических станциях:

Погода на Мысе Ванкарем (Чукотка, Россия) (320 км)
Погода в Эгвекиноте (Чукотка, Россия) (448 км)
Погода на Острове Врангеля (Чукотка, Россия) (648 км)

Пояснения к столбцам:

Ветер - указаны скорость ветра в м/с - средняя за 10 мин, порывы в срок и между сроками (в фигурных скобках) и направление, откуда дует ветер: С - северный, СВ - северо-восточный, В - восточный, ЮВ - юго-восточный, Ю - южный, ЮЗ - юго-западный, З - западный, СЗ - северо-западный.
Видимость - горизонтальная дальность видимости в метрах или километрах. При видимости от 1 до 10 км при отсутствии осадков обычно наблюдается дымка, при ухудшении видимости до 1 км и менее - туман. В сухую погоду видимость может ухудшаться дымом, пылью или мглою.
Явления - указаны атмосферные явления, наблюдавшиеся в срок или в последний час перед сроком; фигурными скобками обозначены явления, наблюдавшиеся между сроками (за 1-3 часа до срока); квадратными скобками обозначены град или гололедные отложения с указанием их диаметра в мм.
Облачность - указаны через наклонную черту общая и нижняя облачность в баллах и высота нижней границы облаков в метрах; квадратными скобками обозначены формы облаков: Ci - перистые, Cs - перисто-слоистые, Cc - перисто-кучевые, Ac - высококучевые, As - высокослоистые, Sc - слоисто-кучевые, Ns - слоисто-дождевые, Cu - кучевые, Cb - кучево-дождевые. Подробнее классификацию облаков см. в Атласе облаков (PDF).
T - Температура воздуха - температура, измеренная на высоте 2 м над землей.
Td - Температура точки росы - температура, при понижении до которой содержащийся в воздухе водяной пар достигнет насыщения.
f - Относительная влажность воздуха - влажноcть воздуха, измеренная на высоте 2 м над землей.
Te - Эффективная температура - температура, которую ощущает одетый по сезону человек в тени. Характеристика душности погоды. При расчете учитывается влияние влажности воздуха и скорости ветра на теплоощущения человека.
Tes - Эффективная температура на солнце - температура, которую ощущает человек, с поправкой на солнечный нагрев. Характеристика знойности погоды. Зависит от высоты солнца над горизонтом, облачности и скорости ветра. Ночью, в пасмурную погоду, а также при ветре 12 м/с и более поправка равна нулю.
P - Атмосферное давление - приведенное к уровню моря атмосферное давление.
Po - Атмосферное давление - измеренное на уровне метеостанции атмосферное давление.
Tmin - Минимальная температура - минимум температуры воздуха на высоте 2 м над землей.
Tmax - Максимальная температура - максимум температуры воздуха на высоте 2 м над землей.
R - Количество осадков - Количество выпавших осадков за период времени, мм. При наведении курсора мыши на число - период времени, за который выпало указанное количество осадков.
R24 - Количество осадков - Количество выпавших осадков за 24 часа, мм.
S - Снежный покров - Высота снежного покрова, см. При наведении курсора мыши на число - состояние снежного покрова и степень покрытия местности в баллах.